EHI
0 0 0 0 0 0 0 0 0 0 0 0 0 0 0 0 0 0 0 0 0 0 0 0 0 0 0 0 0 0 0 0 0 0 0 0 0 0 0 0 0 0 0 0 0 1 2 2 2
0 0 0 0 0 0 0 0 0 0 0 0 0 0 0 0 0 0 0 0 0 0 0 0 0 0 0 0 0 0 0 0 0 0 0 0 0 0 0 0 0 0 0 0 0 0 1 1 1
0 0 0 0 0 0 0 0 0 0 0 0 0 0 0 0 0 0 0 0 0 0 0 0 0 0 0 0 0 0 0 0 0 0 0 0 0 0 0 0 0 0 0 0 0 0 0 0 0
0 0 0 0 0 0 0 0 0 0 0 0 0 0 0 0 0 0 0 0 0 0 0 0 0 0 0 0 0 1 1 0 0 0 0 0 0 0 0 0 0 0 0 0 0 1 0 0 0
0 0 0 0 0 0 0 0 0 0 0 0 0 0 0 0 0 0 0 0 0 0 0 0 0 0 0 0 0 1 1 0 0 0 0 0 0 0 0 0 0 0 0 0 0 0 0 0 0
0 0 0 0 0 0 0 0 0 0 0 0 0 0 0 0 0 0 0 0 0 0 0 0 0 0 0 0 0 0 0 0 0 0 0 0 0 0 0 0 0 0 0 0 0 0 0 0 0
0 0 0 0 0 0 0 0 0 0 0 0 0 0 0 0 0 0 0 0 0 0 0 0 0 0 0 0 0 0 0 0 0 0 0 0 0 0 0 0 0 0 0 0 0 0 0 0 0
0 0 0 0 0 0 0 0 0 0 0 0 0 0 0 1 1 0 0 0 0 0 0 0 0 0 0 0 1 0 0 0 0 0 0 0 0 0 0 0 0 0 0 0 0 0 0 0 0
0 0 0 0 0 0 0 0 0 0 0 0 0 0 1 2 2 1 0 0 0 0 0 0 0 0 0 0 0 0 0 0 0 0 0 0 0 0 0 0 0 0 0 0 0 0 0 0 0
0 0 0 0 0 0 0 0 0 0 0 0 0 0 1 2 2 1 0 0 0 0 0 0 0 0 0 0 0 0 0 0 0 0 0 0 0 0 0 0 0 0 0 0 0 0 0 0 0
0 0 0 0 0 0 0 0 0 0 0 0 0 0 0 1 1 0 0 0 0 0 0 0 0 0 0 0 0 0 0 0 0 0 0 0 0 0 0 0 0 0 0 0 0 0 0 0 0
0 0 0 0 0 0 0 0 0 0 0 0 0 0 0 0 0 0 0 0 0 0 0 0 0 0 0 0 0 0 0 0 0 0 0 0 0 0 0 0 0 0 0 0 0 0 0 0 0
0 0 0 0 0 0 0 0 0 0 0 0 0 0 0 0 0 0 0 0 0 0 0 0 0 0 0 0 0 0 0 0 0 0 0 0 0 0 0 0 0 0 0 0 0 0 0 0 0
1 1 1 0 0 0 0 0 0 0 0 0 0 0 0 0 0 0 0 0 0 0 0 0 0 0 0 0 0 0 0 0 0 0 0 0 0 0 0 0 0 0 0 0 0 0 0 0 0
1 1 1 0 0 0 0 0 0 0 0 0 0 0 0 0 0 0 0 0 0 0 0 0 0 0 0 0 0 0 0 0 0 0 0 0 0 0 0 0 0 0 0 0 0 0 0 0 0
0 0 0 0 0 0 0 0 0 0 0 0 0 0 0 0 0 0 0 0 0 0 0 0 0 0 0 0 0 0 0 0 0 0 0 0 0 0 0 0 0 0 0 0 0 0 0 0 0
0 0 0 0 0 0 0 0 0 0 0 0 0 0 0 0 0 0 0 0 0 0 0 0 0 0 0 0 0 0 0 0 0 0 0 0 0 0 0 0 0 0 0 0 0 0 0 0 0
0 0 0 0 0 0 0 0 0 0 0 0 0 0 0 0 0 0 0 0 0 0 0 0 0 0 0 0 0 0 0 0 0 0 0 0 0 0 0 0 0 0 0 0 0 0 0 0 0
0 0 0 0 0 0 0 0 0 0 0 0 0 0 0 0 0 0 0 0 0 0 0 0 0 0 0 0 0 0 0 0 0 0 0 0 0 0 0 0 0 0 0 0 0 0 0 0 0
0 0 0 0 0 0 0 0 0 0 0 0 0 0 0 0 0 0 0 0 0 0 0 0 0 0 0 0 0 0 0 0 0 0 1 1 0 0 0 0 0 0 0 0 0 0 0 0 0
0 0 0 0 0 0 0 0 0 0 0 0 0 0 0 0 0 0 0 0 0 0 0 0 0 0 0 0 0 0 0 0 0 0 1 1 1 0 0 0 0 0 0 0 0 0 0 0 0
0 0 0 0 0 0 0 0 0 0 0 0 0 0 0 0 0 0 0 0 0 0 0 0 0 0 0 0 0 0 0 0 0 0 1 2 2 1 1 0 0 0 0 0 0 0 0 0 0
0 0 0 0 0 0 0 0 0 0 0 0 0 0 0 0 0 0 0 0 0 0 0 0 0 0 0 0 0 0 0 0 0 1 1 2 3 2 1 0 0 0 0 0 0 0 0 0 0
0 0 0 0 0 0 0 0 0 0 0 0 0 0 0 0 0 0 0 0 0 0 0 0 0 0 0 0 0 0 0 0 1 2 3 3 3 2 1 0 0 0 0 0 0 0 0 0 0
0 0 0 0 0 0 0 0 0 0 0 0 0 0 0 0 0 0 0 0 0 0 0 0 0 0 0 0 0 0 0 1 2 3 3 3 3 1 1 0 0 0 0 0 0 0 0 0 0
0 0 0 0 0 0 0 0 0 0 0 0 0 0 0 0 0 0 0 0 0 0 0 0 0 0 0 0 0 0 0 1 2 2 3 3 2 1 1 0 0 0 0 0 0 0 0 0 0
0 0 0 0 0 0 0 0 0 0 0 0 0 0 0 0 0 0 0 0 0 0 0 0 0 0 0 0 0 0 0 1 1 1 2 2 2 1 0 0 0 0 0 0 0 0 0 0 0
0 0 0 0 0 0 0 0 0 0 0 0 0 0 0 0 0 0 0 0 0 0 0 0 0 0 0 0 1 0 0 0 0 0 1 1 1 0 0 0 0 0 0 0 0 0 0 0 0
0 0 0 0 0 0 0 0 0 0 0 0 0 0 0 0 0 0 0 0 0 0 0 0 0 0 0 0 0 0 0 0 0 0 0 0 0 0 0 0 0 0 0 0 0 0 0 0 0
0 0 0 0 0 0 0 0 0 0 0 0 0 0 0 0 0 0 0 0 0 0 0 0 0 0 0 0 0 0 0 0 0 0 0 0 0 0 0 0 0 0 0 0 0 0 0 0 0
Wind_Speed
5 3 2 3 3 3 6 5 4 4 4 5 5 4 5 6 5 6 5 3 3 4 4 5 5 5 6 7 7 7 8 8 8 8 8 9 9 9 9 8 8 9 8 8 8 8 8 8 7
2 2 3 2 1 4 6 5 5 6 6 5 4 4 5 7 6 6 5 4 3 4 4 6 6 6 7 7 8 8 8 8 9 9 9 9 9 9 8 8 9 8 8 8 8 8 8 8 7
2 2 2 0 2 4 6 5 6 6 4 2 4 4 5 6 5 5 5 4 4 5 5 8 6 7 8 8 9 9 9 9 9 9 9 9 9 9 9 9 8 8 8 8 8 9 9 8 8
3 2 2 2 7 6 5 6 6 7 4 3 4 6 6 5 4 5 6 5 5 6 7 9 7 8 8 8 9 9 9 10 9 9 9 9 9 9 9 9 8 8 8 8 9 9 8 8 8
2 1 3 5 7 5 4 4 4 5 4 4 4 7 7 5 6 6 6 5 6 6 7 9 8 9 9 9 9 9 9 10 10 10 10 10 10 10 10 9 9 9 9 9 9 9 10 9 8
2 1 2 5 6 5 4 4 4 4 5 5 5 7 7 6 6 6 6 5 6 6 6 8 9 8 9 9 9 9 9 9 10 10 10 11 11 11 11 10 10 10 10 10 10 10 11 10 9
0 1 3 5 5 5 4 3 3 4 4 4 3 6 7 7 6 6 6 6 6 6 6 6 7 8 8 8 9 9 9 9 9 10 10 11 11 11 11 11 10 10 10 11 11 11 10 10 9
1 2 4 4 4 4 4 4 3 3 4 4 2 4 6 8 7 7 7 6 6 5 5 5 5 5 6 8 9 8 8 9 9 9 8 8 8 9 9 9 11 10 10 10 10 10 10 10 9
2 2 3 4 3 5 6 5 4 3 6 5 3 4 7 11 9 7 7 6 6 5 4 5 4 4 4 6 7 6 7 6 5 7 6 3 5 7 6 11 10 9 9 9 9 9 9 8 8
2 1 3 2 3 5 5 4 5 5 5 5 6 7 9 10 8 7 6 6 6 5 5 4 4 4 4 4 4 3 4 4 4 5 5 4 5 5 5 8 8 8 8 8 8 6 5 2 4
1 2 3 3 3 4 5 4 4 4 4 4 6 9 10 9 8 6 6 5 5 5 5 4 4 4 4 3 3 3 3 3 4 5 5 4 4 3 3 3 4 4 4 4 5 3 3 4 4
2 2 2 3 3 4 4 4 4 3 3 4 5 9 10 9 7 6 6 5 5 5 5 4 3 3 4 4 3 3 3 3 3 3 5 3 3 3 3 3 3 3 3 3 3 3 4 4 5
2 3 3 3 3 3 4 4 3 3 3 4 7 9 9 8 7 6 5 5 5 5 5 5 4 3 3 4 2 3 3 3 4 3 3 4 3 3 3 3 2 3 3 3 3 3 5 4 5
3 3 3 3 3 3 4 3 3 3 5 7 8 8 8 7 7 6 6 5 6 6 5 5 5 4 4 3 3 3 3 3 3 3 3 3 3 2 2 3 3 3 2 3 2 3 3 3 4
4 3 3 2 3 3 3 3 4 4 6 7 8 8 7 7 7 6 6 6 5 6 5 5 4 4 3 3 3 2 2 2 3 2 3 4 3 2 2 2 3 2 2 2 2 3 2 3 3
4 4 3 2 3 4 5 3 3 5 8 8 7 7 7 7 6 6 6 5 5 6 6 5 4 4 4 3 2 2 2 2 2 2 2 3 3 3 3 2 2 2 2 2 2 2 2 3 3
5 4 2 3 3 4 6 3 3 5 7 8 8 8 8 7 7 6 6 6 5 6 6 6 5 4 4 3 2 2 2 2 2 2 2 2 3 3 3 2 1 2 2 2 2 2 2 2 3
4 4 3 2 2 5 5 5 3 6 7 7 7 7 7 8 8 8 7 6 5 5 6 6 6 5 5 3 2 2 2 2 2 2 2 2 2 2 3 1 2 2 2 2 2 3 2 2 2
3 4 4 2 1 5 6 6 5 5 7 7 7 8 8 8 8 7 7 7 6 6 6 6 6 6 4 3 3 2 2 2 2 1 2 2 2 2 2 1 2 2 2 2 2 2 2 2 1
6 6 4 2 1 5 5 5 5 5 7 6 6 7 8 8 9 8 8 7 7 7 7 7 6 6 5 3 3 2 2 2 2 2 2 2 1 1 1 1 1 2 1 2 2 1 1 1 0
7 7 5 4 3 5 5 6 6 5 6 6 7 7 8 8 9 10 10 9 8 7 7 6 7 7 6 5 3 3 3 2 2 2 2 1 1 1 1 1 1 1 1 1 1 1 1 0 0
6 4 6 6 7 4 5 6 4 5 6 7 8 8 9 9 9 9 9 9 9 8 7 7 7 6 6 5 4 5 4 3 3 2 2 2 2 2 1 1 1 1 0 1 1 0 0 1 0
4 2 5 7 8 7 6 7 3 4 5 6 7 8 9 9 9 9 9 9 9 8 7 6 6 6 6 5 5 5 4 3 2 3 3 2 2 2 2 1 1 1 1 1 0 1 1 1 1
3 4 5 6 7 8 5 7 3 2 4 5 6 7 8 9 9 9 8 7 8 7 6 6 6 6 6 6 6 5 5 4 4 4 3 2 2 1 1 1 1 1 1 1 1 1 1 1 1
6 6 5 6 6 5 2 6 4 1 2 4 4 5 6 8 8 8 8 8 8 8 8 8 7 7 6 6 6 6 5 5 5 4 3 3 2 2 2 2 2 1 1 1 1 1 1 1 1
7 8 6 5 4 3 4 6 1 1 2 3 4 4 5 7 7 7 8 8 8 8 8 8 8 7 7 6 5 5 5 4 3 3 3 3 2 2 2 2 2 1 1 1 1 1 1 1 2
7 7 5 7 6 6 5 4 4 3 3 2 3 4 5 6 7 7 7 7 7 8 8 8 9 8 7 6 5 5 5 4 4 3 3 3 2 2 2 2 2 1 1 1 2 2 2 2 2
5 4 5 7 7 7 5 6 4 4 3 2 3 4 5 5 6 7 7 6 6 6 7 7 8 8 7 6 5 4 4 4 3 3 3 3 3 2 3 3 3 2 2 2 2 2 1 2 1
6 7 7 6 6 7 5 2 1 2 2 2 2 3 4 4 5 6 6 6 6 6 6 7 7 7 6 6 6 5 4 4 4 3 3 3 3 3 3 3 2 2 2 2 2 3 3 3 3
7 7 8 8 7 7 7 3 2 2 2 2 3 2 2 3 4 5 5 6 5 5 5 6 6 6 6 6 6 5 4 4 4 4 3 3 3 3 3 3 2 2 2 2 2 2 3 3 2
Wind_Direction
177 185 225 235 215 110 83 81 83 92 76 65 63 63 63 45 29 62 87 88 80 80 80 91 61 62 70 75 75 77 74 70 71 73 73 75 74 74 73 72 76 77 75 77 83 83 83 86 87
174 197 234 241 218 114 93 94 95 78 92 102 87 78 78 73 61 87 106 101 97 85 80 71 68 72 74 77 78 77 74 71 73 74 74 76 75 73 73 76 75 75 75 76 83 85 86 85 83
166 234 267 191 77 79 98 101 105 104 109 116 98 67 58 73 85 96 101 121 108 91 84 80 76 78 78 79 79 78 72 71 73 72 73 73 74 74 72 74 73 71 73 75 80 79 84 88 83
209 210 219 110 95 79 87 106 120 129 119 96 110 95 81 67 82 97 115 123 110 98 90 85 79 83 80 78 76 74 70 69 73 72 72 72 71 73 75 76 76 74 72 75 85 80 83 87 83
231 236 138 112 98 95 95 103 127 125 114 106 107 101 97 88 93 105 117 114 106 96 93 92 81 80 78 76 75 72 71 69 72 75 72 71 70 71 73 74 73 71 73 75 80 79 80 78 77
202 216 137 113 108 112 114 118 133 115 111 113 112 108 98 111 113 113 115 111 104 102 100 102 99 83 77 75 72 71 70 70 69 72 71 69 68 67 68 69 69 69 70 74 75 76 74 73 70
231 123 109 116 123 122 110 117 127 121 119 115 121 113 116 125 119 122 116 111 106 104 105 104 111 109 101 83 73 72 70 70 69 70 71 71 68 66 66 67 66 67 67 71 72 71 72 70 69
294 154 131 125 133 119 126 133 113 114 107 111 140 115 129 136 136 130 123 120 115 109 106 104 99 97 102 101 88 80 76 73 71 71 71 77 87 82 74 72 65 66 68 71 71 70 71 70 69
236 178 132 134 136 122 141 144 122 114 123 124 107 77 109 133 143 139 133 128 118 114 112 106 103 99 94 92 102 106 102 91 99 97 95 94 80 79 82 64 64 67 70 73 72 72 74 79 82
207 131 114 130 138 130 146 145 139 150 143 136 129 116 126 143 152 151 145 137 128 123 115 108 108 110 105 95 103 97 91 90 76 74 75 70 66 65 66 88 76 75 80 87 80 79 94 85 81
138 103 123 151 150 147 152 145 149 162 141 149 150 144 145 154 158 158 148 135 123 121 116 115 108 106 106 106 94 88 85 86 83 77 81 75 76 85 72 87 105 97 99 86 102 117 73 68 65
130 112 145 146 155 174 167 152 155 166 109 119 144 146 151 160 163 160 151 138 134 129 121 116 113 114 111 108 102 102 94 85 83 78 74 70 69 68 72 73 71 71 72 64 59 58 72 70 74
136 120 109 114 149 160 153 154 149 157 140 126 139 151 158 163 163 158 151 146 144 138 135 129 128 125 119 102 106 109 92 84 90 76 72 73 64 68 76 75 74 64 65 69 59 57 62 63 64
111 125 133 141 147 157 160 163 187 169 161 155 158 163 165 163 167 163 162 160 152 150 144 137 138 136 130 127 128 101 96 104 85 81 75 78 76 74 67 73 73 71 65 60 64 66 64 59 57
153 156 150 169 189 178 183 191 208 182 173 173 174 169 166 167 170 174 168 166 160 153 151 140 145 143 133 117 106 104 105 92 84 79 79 86 77 81 79 72 75 75 73 77 67 73 65 69 70
181 198 194 166 199 194 224 223 162 173 184 185 184 174 175 175 179 176 172 171 170 165 159 150 159 155 141 131 131 118 112 101 93 86 71 79 83 74 70 70 77 80 75 73 72 65 74 73 64
202 214 207 177 194 200 220 238 156 173 193 194 192 187 182 181 184 183 181 179 178 176 170 163 161 159 152 144 146 133 123 119 102 100 88 81 88 91 87 68 69 79 72 63 65 67 63 76 73
213 223 221 228 184 209 224 238 201 185 203 206 198 198 193 194 189 184 184 182 178 180 180 169 157 170 155 158 160 145 135 130 114 110 111 89 92 94 96 104 90 76 81 76 82 85 81 73 82
234 238 246 258 235 232 236 245 231 197 208 215 208 204 204 205 190 184 182 185 181 179 185 177 172 173 167 169 179 165 152 147 133 115 98 121 120 109 101 108 85 71 76 74 83 94 107 94 90
225 234 248 240 241 253 250 252 241 217 217 221 219 209 208 206 193 187 190 189 187 183 189 187 183 178 176 179 179 169 155 156 125 147 147 153 144 127 116 143 124 123 112 107 94 105 82 79 298
229 239 251 267 257 230 260 246 216 206 214 218 223 218 210 208 203 195 193 192 191 191 195 198 189 182 179 173 170 154 143 158 162 167 157 161 163 146 158 139 166 160 174 139 159 159 153 146 345
238 245 250 250 255 246 253 270 226 212 208 212 216 216 213 209 208 201 198 196 199 198 198 201 190 183 177 175 180 177 182 181 179 171 164 172 171 172 183 172 208 197 191 192 192 170 263 260 231
264 235 244 251 258 262 238 262 231 194 222 220 213 211 213 210 208 204 202 201 199 193 195 200 186 180 175 182 181 196 193 185 169 168 166 173 162 180 184 191 206 212 210 236 221 224 259 262 284
189 201 214 229 246 250 244 253 259 214 242 236 214 208 209 208 205 203 198 196 194 185 184 189 184 178 176 185 189 196 189 189 179 182 179 182 170 184 189 213 216 211 217 224 220 215 228 265 280
212 232 231 221 222 237 201 246 254 291 273 264 243 213 205 204 202 199 192 191 189 187 187 185 183 181 181 189 197 198 195 195 195 190 192 199 195 191 192 209 218 219 228 229 218 216 220 232 243
224 241 255 264 258 237 208 240 213 302 277 265 243 216 199 195 197 196 192 192 189 188 190 190 185 186 185 193 198 198 190 194 197 200 201 207 214 208 197 201 224 221 226 218 209 235 228 236 232
221 229 270 278 275 264 229 232 233 232 238 231 218 208 202 196 196 195 190 190 188 186 188 192 187 187 185 193 196 194 190 190 195 204 204 207 208 199 198 206 217 207 216 221 211 233 226 240 250
261 227 224 243 258 254 242 243 236 205 227 224 217 212 205 200 198 195 189 189 186 185 188 191 192 188 185 188 191 192 197 192 191 197 198 209 205 195 196 207 211 199 203 209 221 241 252 243 229
197 209 231 242 258 269 263 237 42 271 255 271 258 230 207 199 200 196 189 186 183 181 183 188 188 187 185 187 187 191 193 188 185 195 194 202 195 193 194 207 217 216 214 213 210 232 231 240 230
244 235 231 242 238 252 272 268 97 283 284 293 298 282 229 207 197 193 185 179 178 178 180 184 185 184 185 189 187 191 183 187 188 185 182 193 194 194 197 198 212 217 228 236 226 228 233 237 243